Regional Weather Roundup
Issued by NWS

Home | Current Version | Previous Version | Text Only | Print | Product List | Glossary Off
Versions: 1 2 3 4 5 6 7 8 9 10 11 12 13 14 15 16 17 18 19 20 21 22 23 24 25 26 27 28 29 30 31 32 33 34 35 36 37 38 39 40 41 42 43 44 45 46 47 48 49 50

000
ASUS43 KIND 300809
RWRIN

WEATHER ROUNDUP FOR INDIANA
NATIONAL WEATHER SERVICE INDIANAPOLIS IN
400 AM EDT TUE JUN 30 2015

NOTE: "FAIR" INDICATES FEW OR NO CLOUDS BELOW 12,000 FEET WITH NO
SIGNIFICANT WEATHER AND/OR OBSTRUCTIONS TO VISIBILITY.

* - STATION DOES NOT REPORT WEATHER SUCH AS PRECIPITATION OR FOG.

+ - STATION NOT QUALITY CONTROLLED BY THE NATIONAL WEATHER SERVICE.
    USE DATA WITH CAUTION...ESPECIALLY DEWPOINT AND RELATIVE
    HUMIDITY OBSERVATIONS.

INZ001>003-010>013-019-020-300900-
NORTHWEST INDIANA

CITY           SKY/WX    TMP DP  RH WIND       PRES   REMARKS
GARY /AIRPORT/ MOCLDY    65  65 100 CALM      29.78S FOG
KNOX *+        CLOUDY    61  61 100 S3        29.78S
LA PORTE +     CLOUDY   N/A N/A N/A S5        29.80S FOG
MICHIGAN CITY+ CLOUDY    63  63 100 S3        29.79S FOG
MONTICELLO +   FOG       63  63 100 S3        29.79F VSB 1
RENSSELAER +   PTCLDY    63  63 100 S6        29.79F
VALPARAISO     FOG       63  63 100 S5        29.79F VSB 1/2

$$

LMZ046-743>745-300900-
SOUTHERN LAKE MICHIGAN

STATION/POSITION TIME  TEMP    WIND        PRES    WAVE
                       AIR SEA DIR/SP/G            HT
                 (UTC) (F)     (DEG/KT/KT) (MB)    (FT)
BURNS HARBOR     0800   65     180/  8/ 11 1008.8S
MICHIGAN CITY    0800   63     150/  9/ 13   N/A
5NW MICH CITY    0800   64 64  190/  6/  8   N/A     1

$$

INZ004-005-014>016-021>024-300900-
NORTH CENTRAL INDIANA

CITY           SKY/WX    TMP DP  RH WIND       PRES   REMARKS
GOSHEN         CLOUDY    61  59  93 S3        29.80S FOG
LOGANSPORT +   CLOUDY    63  61  94 S3        29.81S FOG
PERU/GRISSOM   CLOUDY    63  63 100 SW5       29.80S FOG
ROCHESTER +    MOCLDY    63  63 100 CALM      29.81S FOG
SOUTH BEND     CLOUDY    63  60  90 S6        29.80S
WARSAW +       FOG       55  55 100 CALM      29.81S VSB 1

$$

INZ006>009-017-018-025>027-300900-
NORTHEAST INDIANA

CITY           SKY/WX    TMP DP  RH WIND       PRES   REMARKS
ANGOLA *+      CLEAR     61  50  67 CALM      29.80F
AUBURN +       FOG       57  55  94 CALM      29.82S VSB 1/2
FORT WAYNE     FOG       60  60 100 CALM      29.82F VSB 1/8
HUNTINGTON +   FOG       58  57  97 CALM      29.80F VSB 1/2

$$

INZ028-029-035-036-043>045-051>053-300900-
WEST CENTRAL INDIANA

CITY           SKY/WX    TMP DP  RH WIND       PRES   REMARKS
CRAWFORDSVL +  PTCLDY    63  62  97 SW7       29.82F
GREENCASTLE +  PTCLDY    61  57  88 S6        29.84S FOG
LAFAYETTE      FOG       61  61 100 CALM      29.80F VSB 1/2
TERRE HAUTE    PTCLDY    64  63  96 S3        29.83F

$$

INZ030>032-037>040-046>048-054>057-064-065-300900-
CENTRAL INDIANA

CITY           SKY/WX    TMP DP  RH WIND       PRES   REMARKS
CP ATTERBURY + CLEAR     64  63  94 W5        29.83F
FISHERS *+     CLEAR     61  61 100 CALM      29.82F
FRANKFORT +    CLEAR    N/A N/A N/A CALM      29.83S HAZE
GREENWOOD *+   CLEAR     64  61  88 SW6       29.83F
INDIANAPOLIS   PTCLDY    65  62  90 SW9       29.82S
-EAGLE CREEK   CLEAR     65  63  93 SW5       29.81F
KOKOMO *+      MOCLDY    63  61  94 SW5       29.80F
MARION +       PTCLDY    59  59  99 CALM      29.81F FOG
MT COMFORT *+  CLEAR     63 N/A N/A SW3       29.82F
SHELBYVILLE    PTCLDY    66  63  90 SW6       29.81F
ZIONSVILLE +   CLEAR     63  60  91 W5        29.83S

$$

INZ033-034-041-042-049-050-058-059-300900-
EAST CENTRAL INDIANA

CITY           SKY/WX    TMP DP  RH WIND       PRES   REMARKS
MUNCIE         CLEAR     63  61  93 CALM      29.81F FOG

$$

INZ060-061-067>069-081>083-085>088-300900-
SOUTHWEST INDIANA

CITY           SKY/WX    TMP DP  RH WIND       PRES   REMARKS
EVANSVILLE     PTCLDY    69  65  86 CALM      29.86F
HUNTINGBURG *+ CLEAR     64  63  94 CALM      29.86F
WASHINGTON +   CLEAR     66  62  87 CALM      29.85S

$$

INZ062-063-066-070>080-084-089>092-300900-
SOUTH CENTRAL AND SOUTHEAST INDIANA

CITY           SKY/WX    TMP DP  RH WIND       PRES   REMARKS
BLOOMINGTON    CLEAR     64  63  96 SW5       29.85S
MADISON *+     CLEAR     64  63  94 CALM      29.86F
NORTH VERNON + CLEAR     64  64 100 SW6       29.84F
SEYMOUR +      CLEAR     64  63  94 SW7       29.83F

$$



USA.gov is the U.S. government's official web portal to all federal, state and local government web resources and services.